Location: Unspecified
(45.6635°N, 122.4424°W)
Time: 14:20:12
(UTC+00:00)

CZ-3 Stage 3 - Visible Passes

Search period start: 25 April 2018 00:00
Search period end: 05 May 2018 00:00
Orbit: 437 x 34737 km, 31.0° (Epoch: 24 April)

Date Brightness Start Highest point End Pass type
(mag) Time Alt. Az. Time Alt. Az. Time Alt. Az.
25 Apr 7.4 10:34:06 10° SSE 17:16:16 49° S 17:34:20 10° E visible
26 Apr 10.0 09:56:59 10° SE 13:00:26 28° SE 13:47:58 10° E visible
28 Apr 7.5 10:15:03 10° SSE 16:58:06 49° S 17:17:11 10° E visible
29 Apr 9.8 09:42:16 10° SE 12:40:05 27° SE 13:28:37 10° E visible
01 May 7.7 09:53:39 10° SSE 16:33:35 50° SSE 16:54:25 10° E visible
02 May 9.7 09:28:34 10° SE 12:13:36 26° SE 13:02:57 10° E visible
03 May 6.1 14:22:50 10° SW 14:53:49 10° SW 20:08:14 10° SE visible
04 May 8.0 09:30:52 10° SSE 16:02:28 50° SSE 16:26:02 10° E visible
